Skip Page Navigation
NASA JPL Caltech
NASA Logo - Jet Propulsion Laboratory + View the NASA Portal
+ Center for Near-Earth Object Studies
JPL Home Earth Solar System Stars & Galaxies Technology
JPL Solar System Dynamics
BODIES ORBITS EPHEMERIDES TOOLS PHYSICAL DATA DISCOVERY FAQ SITE MAP
JPL Small-Body Database Browser
Search: [ help ]  
5660 (1974 MA)
Classification: Apollo [NEO]          SPK-ID: 2005660
Ephemeris | Orbit Diagram | Orbital Elements | Mission Design | Physical Parameters | Discovery Circumstances | Close-Approach Data ]

[ show orbit diagram ]
Orbital Elements at Epoch 2459000.5 (2020-May-31.0) TDB
Reference: JPL 69 (heliocentric ecliptic J2000)
 Element Value Uncertainty (1-sigma)   Units 
e .7621000582673575 1.0611e-07  
a 1.785154960689293 4.131e-09 au
q .4246882611317205 1.8947e-07 au
i 38.13176071841984 3.3786e-05 deg
node 302.1551885293708 1.4794e-05 deg
peri 127.0294894825405 2.0569e-05 deg
M 56.96947629522051 8.4842e-06 deg
tp 2458862.635631808620
(2020-Jan-14.13563181)
2.0131e-05 TDB
period 871.188850178367
2.39
3.024e-06
8.279e-09
d
yr
n .4132284290900804 1.4344e-09 deg/d
Q 3.145621660246865 7.2792e-09 au
  Orbit Determination Parameters
   # obs. used (total)      272  
   # delay obs. used      1  
   # Doppler obs. used      1  
   data-arc span      16737 days (45.82 yr)  
   first obs. used      1974-06-26  
   last obs. used      2020-04-22  
   planetary ephem.      DE431  
   SB-pert. ephem.      SB431-N16  
   condition code      0  
   norm. resid. RMS      .47212  
   source      ORB  
   producer      Otto Matic  
   solution date      2020-Apr-23 07:01:00  

Additional Information
 Earth MOID = .162354 au 
 Jupiter MOID = 2.83702 au 
 T_jup = 3.511 
[ show covariance matrix ]

Ephemeris | Orbit Diagram | Orbital Elements | Mission Design | Physical Parameters | Discovery Circumstances | Close-Approach Data ]

Physical Parameter Table
Parameter Symbol Value Units Sigma Reference Notes
absolute magnitude H 15.5   n/a MPO473844  
rotation period rot_per 17.5 h n/a LCDB (Rev. 2019-August); Warner et al., 2009 Result based on less than full coverage, so that the period may be wrong by 30 percent or so.
Published Reference List:
[Pravec, P.; Wolf, M.; Sarounova, L. (2005) http://www.asu.cas.cz/~ppravec/neo.htm]
SMASSII spectral type spec_B Q   n/a EAR-A-5-DDR-TAXONOMY-V4.0 based on a high-resolution spectrum by Xu et al. (1995) or Bus and Binzel (2002)

5660 (1974 MA)          Discovered 1974-Jun-26 by Kowal, C. T. at Palomar
Reference: DISCOVERY.DBLast Updated: 2003-08-29

[ hide close-approach data ]
Close-Approach Data   ...sorted by Date/Time (TDB)
Date/Time (TDB) Time Uncertainty
(days_HH:MM)
Body Nominal Distance (au) Minimum Distance (au) Maximum Distance (au) V-relative (km/s) V-infinity (km/s) JD (TDB) Time Uncertainty (minutes) Semi-major axis (km) Semi-minor axis (km) range-LOV angle (deg) N-sigma BP Orbit Ref. Reference Modified
1900-Jul-23 19:12 < 00:01 Earth 0.315585182039899 0.315580038766995 0.315590325342637 37.2393700413166 37.2391433187496 2415224.300109342 0.363833696461271 298.902089460036 20.5283529481458 -30.9823971926858 1160417.22344287 T 69 CATAB v2.0f-lin.ifort 2020-Apr-23 07:01:04 2020-Apr-23 07:01
1903-Feb-22 16:53 < 00:01 Earth 0.397912169638379 0.397910966706076 0.397913372609813 33.7073744988662 33.7071758429568 2416168.203800591 0.621834322171767 313.616702797875 46.124664698585 82.8983180998356 1220812.44476417 T 69 CATAB v2.0f-lin.ifort 2020-Apr-23 07:01:04 2020-Apr-23 07:01
1915-Jan-22 22:59 < 00:01 Earth 0.455296138172558 0.455293930681565 0.45529834574875 32.5144466389634 32.5142666510986 2420520.457456960 0.69194010266461 355.579032731834 43.5271667014192 -73.3511026509745 1363598.24348003 T 69 CATAB v2.0f-lin.ifort 2020-Apr-23 07:01:04 2020-Apr-23 07:01
1919-Aug-14 07:32 < 00:01 Earth 0.325365166910449 0.325360524815324 0.325369809034371 23.2886154965513 23.2882638544159 2422184.813996977 0.156553350568291 277.616625631739 20.3816615437174 33.6085314547207 1428425.65252637 T 69 CATAB v2.0f-lin.ifort 2020-Apr-23 07:01:04 2020-Apr-23 07:01
1931-Aug-02 09:55 < 00:01 Earth 0.165299382597467 0.16529747327928 0.165301292013148 31.586022589178 31.5855122608315 2426555.913329368 0.239394123680657 224.946189522088 17.8583264245089 -65.3503800375067 1233034.46712554 T 69 CATAB v2.0f-lin.ifort 2020-Apr-23 07:01:04 2020-Apr-23 07:01
1934-Mar-10 00:39 < 00:01 Earth 0.466224033221009 0.466221727381693 0.466226339091941 37.3440140717435 37.343861034339 2427506.527300816 0.39614703449316 234.925248632596 40.9014433185502 62.3203695138241 1454902.44190034 T 69 CATAB v2.0f-lin.ifort 2020-Apr-23 07:01:04 2020-Apr-23 07:01
1943-Jul-17 17:05 < 00:01 Earth 0.459559316686015 0.459556071956568 0.459562561420503 41.5646723967625 41.5645329054539 2430923.211795820 0.230203069155354 178.99631306019 23.3598407871323 -25.5536258838797 1278480.45405105 T 69 CATAB v2.0f-lin.ifort 2020-Apr-23 07:01:04 2020-Apr-23 07:01
1946-Feb-10 04:48 < 00:01 Earth 0.399504033544385 0.399502877018589 0.399505190087509 32.5157588029254 32.5155536873381 2431861.700110541 0.433157598693902 219.788056204577 45.3212351890136 -80.4543020194241 1216369.99741937 T 69 CATAB v2.0f-lin.ifort 2020-Apr-23 07:01:04 2020-Apr-23 07:01
1962-Aug-09 03:00 < 00:01 Earth 0.191749926804217 0.191748223151009 0.191751630482463 26.8940077572117 26.8934910722804 2437885.624738046 0.12070646806347 140.154762926439 16.8466892200229 53.2404912658874 1381745.39164756 T 69 CATAB v2.0f-lin.ifort 2020-Apr-23 07:01:04 2020-Apr-23 07:01
1974-Jul-25 18:49 < 00:01 Earth 0.296510949304816 0.296509334577796 0.296512564036655 36.3071066415666 36.3068591380004 2442254.283821681 0.117434385976909 101.394550469545 20.3784347605889 -38.346562188102 1352049.79073837 T 69 CATAB v2.0f-lin.ifort 2020-Apr-23 07:01:04 2020-Apr-23 07:01
1977-Feb-25 03:39 < 00:01 Earth 0.408652469652034 0.408651658806778 0.408653280498567 34.5266900456077 34.5265012010513 2443199.651906770 0.225984899200161 142.457243621071 39.0064747598223 85.543467240537 1471818.70589938 T 69 CATAB v2.0f-lin.ifort 2020-Apr-23 07:01:04 2020-Apr-23 07:01
1989-Jan-24 20:11 < 00:01 Earth 0.443614055968212 0.44361277604254 0.443615335901297 32.6234821895701 32.6232980793197 2447551.341160154 0.205726894641237 131.504275222291 39.4040218037215 -66.4099575700526 1406056.66648744 T 69 CATAB v2.0f-lin.ifort 2020-Apr-23 07:01:04 2020-Apr-23 07:01
1993-Aug-13 18:56 < 00:01 Earth 0.337352155379425 0.337351269236452 0.337353041522878 23.1728161795734 23.1724753374636 2449213.288834811 0.051283771154164 49.6114324219675 20.8966061988655 30.0815977543378 1600044.5788344 T 69 CATAB v2.0f-lin.ifort 2020-Apr-23 07:01:04 2020-Apr-23 07:01
2005-Jul-31 23:55 < 00:01 Earth 0.187395518068281 0.187395226974148 0.187395809162425 32.1746996942769 32.1742577763317 2453583.496463296 0.0374814477169826 29.3029667425737 14.4915889841538 -88.1218588314503 1890235.05742959 T 69 CATAB v2.0f-lin.ifort 2020-Apr-23 07:01:04 2020-Apr-23 07:01
2008-Mar-07 23:54 < 00:01 Earth 0.465392123447777 0.465391422178852 0.465392824719744 37.2668945996853 37.2667409714584 2454533.495682357 0.119891300387366 104.954246490418 27.9920086180704 78.0413667561347 2269998.57833972 T 69 CATAB v2.0f-lin.ifort 2020-Apr-23 07:01:04 2020-Apr-23 07:01
2020-Feb-05 20:01 < 00:01 Earth 0.409057514780399 0.409056392005442 0.409058637560425 32.6611502866083 32.6609508532368 2458885.333891970 0.176081062064072 109.607042262007 36.2590801310558 -65.6419305371112 1418481.89059375 T 69 CATAB v2.0f-lin.ifort 2020-Apr-23 07:01:04 2020-Apr-23 07:01
2024-Aug-15 00:06 < 00:01 Earth 0.443494304912749 0.44349317893715 0.443495430889054 21.4014449873143 21.4011642603943 2460537.504332049 0.0549028696286648 64.5717218917364 26.8425791709216 32.8869760933276 1797469.79939636 T 69 CATAB v2.0f-lin.ifort 2020-Apr-23 07:01:04 2020-Apr-23 07:01
2036-Aug-04 02:01 < 00:01 Earth 0.164894298223048 0.164893930349554 0.16489466609807 29.8980858329269 29.8975453683197 2464909.583946812 0.105370029361982 96.0872759367116 17.6895408733537 -87.0521911219075 1366871.95081031 T 69 CATAB v2.0f-lin.ifort 2020-Apr-23 07:01:04 2020-Apr-23 07:01
2048-Jul-17 10:09 < 00:01 Earth 0.458768853691532 0.458766594924917 0.458771112460546 41.2576281858364 41.2574874142793 2469274.922969408 0.165801372078039 124.750440606203 24.5842321309765 -26.0069309737237 1281018.64130142 T 69 CATAB v2.0f-lin.ifort 2020-Apr-23 07:01:04 2020-Apr-23 07:01
2051-Feb-10 17:08 < 00:01 Earth 0.400299904633915 0.400298878986628 0.400300930290965 33.0060841884204 33.0058825217194 2470213.214082676 0.350686118992108 172.18075955384 40.9408543173764 -79.438587294344 1346024.53474637 T 69 CATAB v2.0f-lin.ifort 2020-Apr-23 07:01:04 2020-Apr-23 07:01
2055-Aug-15 20:06 < 00:01 Earth 0.495875255198275 0.495872443413957 0.495878066989162 20.8147978360529 20.8145396870715 2471860.337704844 0.05176558862511 167.745850987012 30.0784092897478 33.915765794595 1630850.52011102 T 69 CATAB v2.0f-lin.ifort 2020-Apr-23 07:01:04 2020-Apr-23 07:01
2067-Aug-05 21:05 < 00:01 Earth 0.172502111347201 0.17250158488896 0.172502637854 29.185642486759 29.1851132468072 2476233.378717828 0.195014969205017 194.731049270868 17.4250912776041 84.1886827096425 1453245.68494463 T 69 CATAB v2.0f-lin.ifort 2020-Apr-23 07:01:04 2020-Apr-23 07:01
2079-Jul-18 09:59 < 00:01 Earth 0.458268361630019 0.458264415981791 0.458272307286375 41.1132124661303 41.1130710458101 2480597.915814262 0.28889394947462 219.357268087432 24.1278872572658 -26.4120831243726 1255277.31227506 T 69 CATAB v2.0f-lin.ifort 2020-Apr-23 07:01:04 2020-Apr-23 07:01
2082-Feb-10 03:34 < 00:01 Earth 0.400700066276323 0.400699000454653 0.400701132123048 33.1493395703477 33.1491389756838 2481535.648619205 0.573649724297676 265.544651433982 42.2283135628399 -82.9288163347728 1325909.11351932 T 69 CATAB v2.0f-lin.ifort 2020-Apr-23 07:01:04 2020-Apr-23 07:01
